This demonstration page uses our WeatherBlox Daily Observations layout. Learn more.

40.92945, -100.16068

Hourly Observations for August 14, 2018

Temp ( °F °C ) Dew Point ( °F °C ) Humidity (%) Winds ( mph kmh ) Pressure ( in mb ) Visibility ( mi km ) Precip ( " mm )
12:15 am 00:15 Clear with Mist and Fog 68 20 66 19.1 95 95 N 3 6 29.97 1015 4 6.43736 0 0
12:35 am 00:35 Partly Cloudy with Mist and Fog 68 20.1 67 19.3 95 95 Calm 29.97 1015 4 6.43736 0 0
12:55 am 00:55 Mostly Cloudy with Mist and Fog 69 20.3 67 19.5 95 95 Calm 29.94 1014 4 6.43736 0 0
1:15 am 01:15 Cloudy 69 20.5 67 19.7 95 95 E 5 7 29.94 1014 7 11.26538 0 0
1:35 am 01:35 Cloudy 69 20.5 67 19.2 92 92 E 5 7 29.94 1014 10 16.0934 0 0
1:55 am 01:55 Cloudy 69 20.3 66 19.1 93 93 ENE 5 7 29.91 1013 10 16.0934 0 0
2:15 am 02:15 Cloudy 68 20.1 66 19 93 93 NE 3 6 29.91 1013 10 16.0934 0 0
2:35 am 02:35 Cloudy with Drizzle 68 20 66 19 94 94 NE 3 6 29.91 1013 5 8.0467 0 0
2:55 am 02:55 Cloudy with Light Rain 68 20 66 19 94 94 ENE 3 6 29.91 1013 7 11.26538 0 0
3:15 am 03:15 Cloudy 68 20 66 19 94 94 NNE 3 6 29.91 1013 10 16.0934 0 0
3:35 am 03:35 Cloudy 68 20 66 19 94 94 Calm 29.88 1012 10 16.0934 0 0
3:55 am 03:55 Cloudy 68 20 66 19 94 94 NNE 3 6 29.88 1012 10 16.0934 0 0
4:15 am 04:15 Cloudy 68 20 66 19 94 94 NE 5 7 29.88 1012 10 16.0934 0 0
4:35 am 04:35 Mostly Cloudy 68 19.8 66 18.8 94 94 NNE 3 6 29.88 1012 7 11.26538 0 0
4:55 am 04:55 Mostly Cloudy 67 19.5 65 18.6 95 95 N 3 6 29.91 1013 7 11.26538 0 0
5:15 am 05:15 Cloudy 67 19.6 66 18.7 95 95 NNE 5 7 29.88 1012 7 11.26538 0 0
5:35 am 05:35 Cloudy 67 19.4 65 18.5 95 95 N 3 6 29.91 1013 7 11.26538 0 0
5:55 am 05:55 Mostly Cloudy 67 19.3 65 18.5 95 95 NNE 3 6 29.91 1013 7 11.26538 0 0
6:15 am 06:15 Partly Cloudy 67 19.4 65 18.6 95 95 NE 3 6 29.91 1013 7 11.26538 0 0
6:35 am 06:35 Partly Cloudy 67 19.7 66 18.8 95 95 ENE 7 11 29.88 1012 7 11.26538 0 0
6:55 am 06:55 Cloudy with Light Rain 68 19.8 66 19 95 95 NE 7 11 29.88 1012 7 11.26538 0 0
7:15 am 07:15 Cloudy 68 19.9 66 18.9 94 94 NE 8 13 29.91 1013 7 11.26538 0 0
7:35 am 07:35 Cloudy with Mist and Fog 68 20 66 19 94 94 ENE 6 9 29.91 1013 5 8.0467 0 0
7:55 am 07:55 Cloudy with Light Drizzle 68 19.8 66 18.8 94 94 ENE 8 13 29.88 1012 5 8.0467 0 0
8:15 am 08:15 Cloudy 68 19.9 66 18.7 93 93 NE 6 9 29.91 1013 10 16.0934 0 0
8:35 am 08:35 Cloudy 68 20.1 66 18.8 92 92 NNE 6 9 29.91 1013 10 16.0934 0 0
8:55 am 08:55 Cloudy 69 20.5 66 19 91 91 NNE 7 11 29.91 1013 10 16.0934 0 0
9:15 am 09:15 Cloudy with Light Rain 69 20.5 66 19.1 92 92 N 7 11 29.91 1013 7 11.26538 0 0
9:35 am 09:35 Cloudy 69 20.5 66 19 91 91 NNE 7 11 29.91 1013 10 16.0934 0 0
9:55 am 09:55 Cloudy with Light Rain 70 20.9 67 19.2 90 90 NNE 6 9 29.91 1013 10 16.0934 0 0
10:15 am 10:15 Cloudy 71 21.8 67 19.3 86 86 NNE 9 15 29.91 1013 10 16.0934 0 0
10:35 am 10:35 Cloudy 72 22 66 19 83 83 NE 9 15 29.91 1013 10 16.0934 0 0
10:55 am 10:55 Cloudy 73 22.5 67 19.3 82 82 NNE 10 17 29.91 1013 10 16.0934 0 0
11:15 am 11:15 Cloudy 73 23 66 19 78 78 ENE 13 20 29.91 1013 10 16.0934 0 0
11:35 am 11:35 Cloudy 74 23.1 66 19.1 78 78 ENE 15 24 29.91 1013 10 16.0934 0 0
11:55 am 11:55 Mostly Cloudy 74 23.2 66 19.1 78 78 NE 12 19 29.91 1013 10 16.0934 0 0
12:15 pm 12:15 Mostly Cloudy 75 24 66 18.9 73 73 E 13 20 29.88 1012 10 16.0934 0 0
12:35 pm 12:35 Mostly Cloudy 75 23.7 65 18.4 72 72 E 15 24 29.88 1012 10 16.0934 0 0
12:55 pm 12:55 Cloudy 74 23.6 66 18.8 75 75 ENE 10 17 29.88 1012 10 16.0934 0 0
1:15 pm 13:15 Cloudy 74 23.3 66 18.8 76 76 NE 10 17 29.91 1013 10 16.0934 0 0
1:35 pm 13:35 Mostly Cloudy 76 24.3 67 19.2 73 73 NE 9 15 29.88 1012 10 16.0934 0 0
1:55 pm 13:55 Mostly Cloudy 76 24.7 66 18.9 70 70 NE 10 17 29.88 1012 10 16.0934 0 0
2:15 pm 14:15 Mostly Cloudy 78 25.3 66 19.1 69 69 NE 8 13 29.88 1012 10 16.0934 0 0
2:35 pm 14:35 Partly Cloudy 78 25.6 66 18.8 66 66 NE 9 15 29.88 1012 10 16.0934 0 0
2:55 pm 14:55 Partly Cloudy 79 26.1 64 18 61 61 NE 10 17 29.85 1011 10 16.0934 0 0
3:15 pm 15:15 Sunny 80 26.6 62 16.4 54 54 NE 12 19 29.83 1010 10 16.0934 0 0
3:35 pm 15:35 Sunny 81 27.1 60 15.6 49 49 ENE 12 19 29.83 1010 10 16.0934 0 0
3:55 pm 15:55 Sunny 81 27 58 14.5 46 46 E 12 19 29.83 1010 10 16.0934 0 0
4:15 pm 16:15 Sunny 80 26.9 60 15.4 49 49 ENE 17 28 29.83 1010 10 16.0934 0 0
4:35 pm 16:35 Mostly Cloudy 77 25 62 16.8 60 60 E 16 26 29.88 1012 10 16.0934 0 0
4:55 pm 16:55 Mostly Cloudy 77 25 62 16.4 59 59 ESE 15 24 29.88 1012 10 16.0934 0 0
5:15 pm 17:15 Partly Cloudy 77 25 63 17.1 62 62 E 9 15 29.88 1012 10 16.0934 0 0
5:35 pm 17:35 Sunny 76 24.7 63 17.1 63 63 E 9 15 29.85 1011 10 16.0934 0 0
5:55 pm 17:55 Sunny 76 24.5 64 17.8 66 66 ESE 6 9 29.85 1011 10 16.0934 0 0
6:15 pm 18:15 Sunny 76 24.5 64 17.6 66 66 ESE 6 9 29.85 1011 10 16.0934 0 0
6:35 pm 18:35 Sunny 76 24.5 65 18.1 68 68 Calm 29.85 1011 10 16.0934 0 0
6:55 pm 18:55 Sunny 76 24.3 64 18 68 68 Calm 29.85 1011 10 16.0934 0 0
7:15 pm 19:15 Sunny 74 23.5 65 18.2 72 72 Calm 29.85 1011 10 16.0934 0 0
7:35 pm 19:35 Sunny 75 24 65 18.6 72 72 Calm 29.85 1011 10 16.0934 0 0
7:55 pm 19:55 Partly Cloudy 74 23.5 66 18.8 75 75 NE 3 6 29.85 1011 10 16.0934 0 0
8:15 pm 20:15 Sunny 73 22.6 66 19 80 80 Calm 29.88 1012 10 16.0934 0 0
8:35 pm 20:35 Mostly Cloudy 72 22 67 19.2 84 84 Calm 29.88 1012 10 16.0934 0 0
8:55 pm 20:55 Mostly Cloudy 71 21.6 66 19 85 85 Calm 29.88 1012 10 16.0934 0 0
9:15 pm 21:15 Clear with Mist and Fog 70 21.1 66 18.8 87 87 Calm 29.88 1012 3 4.82802 0 0
9:35 pm 21:35 Clear 68 20.2 64 18 87 87 NE 5 7 29.88 1012 10 16.0934 0 0
9:55 pm 21:55 Clear 68 19.9 64 17.7 87 87 ENE 3 6 29.91 1013 10 16.0934 0 0
10:15 pm 22:15 Clear 67 19.4 64 17.7 90 90 Calm 29.94 1014 10 16.0934 0 0
10:35 pm 22:35 Clear 65 18.4 62 16.8 90 90 Calm 29.94 1014 10 16.0934 0 0
10:55 pm 22:55 Clear 64 17.7 62 16.6 93 93 NNW 5 7 29.94 1014 7 11.26538 0 0
11:15 pm 23:15 Clear 64 17.7 62 16.7 94 94 WNW 5 7 29.94 1014 10 16.0934 0 0
11:35 pm 23:35 Clear 64 17.5 62 16.6 95 95 WNW 6 9 29.94 1014 7 11.26538 0 0
11:55 pm 23:55 Clear 64 17.5 62 16.6 95 95 WNW 5 7 29.94 1014 7 11.26538 0 0

Powered by AerisWeather